Location: Lake Arresoe
(56.0000°N, 12.5000°E)
Time: 17:13:51
(UTC+02:00)

Cosmos 2058 - Pass Details

Date: 25 July 2021
Orbit: 560 x 584 km, 82.5° (Epoch: 21 September)

Event Time Altitude Azimuth Distance (km) Brightness Sun altitude
Rises 23:08:40 0° 229° (SW) 2,790 6.3 -9.9°
Reaches altitude 10° 23:11:14 10° 245° (WSW) 1,899 5.6 -10.0°
Maximum altitude 23:14:35 23° 298° (WNW) 1,276 5.5 -10.3°
Drops below altitude 10° 23:17:57 10° 351° (N) 1,918 6.9 -10.5°
Sets 23:20:34 0° 6° (N) 2,825 7.5 -10.7°
